Location: Altoona
(40.5167°N, 78.4000°W)
Time: 18:15:22
(UTC-04:00)

USA 186 - Pass Details

Date: 21 August 2017
Orbit: 261 x 438 km, 96.9° (Epoch: 21 September)

Event Time Altitude Azimuth Distance (km) Brightness Sun altitude
Exits shadow 20:52:03 - 168° (SSE) 2,241 5.1 -9.7°
Reaches altitude 10° 20:53:39 10° 168° (SSE) 1,561 4.3 -10.0°
Maximum altitude 20:57:01 88° 253° (WSW) 455 1.9 -10.6°
Drops below altitude 10° 21:00:27 10° 348° (NNW) 1,583 5.2 -11.1°
Sets 21:02:29 0° 349° (N) 2,452 6.2 -11.5°
